GW3984 Weather Reports


time (UTC)temp
C
wind
direction
speed
KPH
gust
KPH
rain 1hr
cm
rain 24hr
cm
rain mn
cm
humidity
%
barometer
mb
20260510164524 27 104 1.6 9.7 0.00 0.00 0.00 71 1014.1
20260510164507 27 191 1.6 12.9 0.00 0.00 0.00 70 1014.8
20260510163520 27 169 3.2 9.7 0.00 0.00 0.00 70 1014.1
20260510163008 27 165 1.6 12.9 0.00 0.00 0.00 67 1014.7
20260510162538 28 82 1.6 12.9 0.00 0.00 0.00 66 1014.1
20260510161541 27 145 1.6 12.9 0.00 0.00 0.00 69 1014.0
20260510161503 27 135 3.2 16.1 0.00 0.00 0.00 71 1014.8
20260510160539 27 128 1.6 11.3 0.00 0.00 0.00 71 1013.8
20260510160023 27 130 1.6 16.1 0.00 0.00 0.00 72 1014.4
20260510155533 27 134 1.6 11.3 0.00 0.00 0.00 72 1013.8
20260510154522 27 122 4.8 12.9 0.00 0.00 0.00 72 1014.3
20260510153433 26 202 1.6 8.0 0.00 0.00 0.00 74 1013.6
20260510153021 26 140 4.8 9.7 0.00 0.00 0.00 74 1014.2
20260510152423 26 119 1.6 6.4 0.00 0.00 0.00 74 1013.6
20260510151515 26 153 3.2 11.3 0.00 0.00 0.00 74 1014.2
20260510151356 26 154 1.6 9.7 0.00 0.00 0.00 75 1013.5
20260510150345 26 113 1.6 9.7 0.00 0.00 0.00 75 1013.3
20260510150015 25 127 6.4 12.9 0.00 0.00 0.00 76 1013.9
20260510145403 26 46 0.0 6.4 0.00 0.00 0.00 77 1013.3
20260510144513 25 106 0.0 6.4 0.00 0.00 0.00 77 1013.9
20260510144404 26 155 0.0 6.4 0.00 0.00 0.00 77 1013.2
20260510143407 25 202 0.0 4.8 0.00 0.00 0.00 78 1013.1
20260510143008 25 175 1.6 11.3 0.00 0.00 0.00 79 1013.7
20260510142403 25 214 0.0 6.4 0.00 0.00 0.00 82 1013.0
20260510141509 24 308 0.0 4.8 0.00 0.00 0.00 80 1013.7
20260510141330 25 61 0.0 4.8 0.00 0.00 0.00 82 1013.0
20260510140350 24 353 0.0 4.8 0.00 0.00 0.00 82 1012.8
20260510140024 23 254 0.0 6.4 0.00 0.00 0.00 82 1013.4
20260510135358 23 82 0.0 4.8 0.00 0.00 0.00 83 1012.7
20260510134524 23 9 0.0 4.8 0.00 0.00 0.00 83 1013.4
20260510134327 23 317 0.0 3.2 0.00 0.00 0.00 83 1012.5
20260510133317 22 53 0.0 0.0 0.00 0.00 0.00 85 1012.5
20260510133022 22 340 0.0 3.2 0.00 0.00 0.00 84 1013.2
20260510132332 22 193 0.0 1.6 0.00 0.00 0.00 85 1012.4
20260510131519 22 232 0.0 3.2 0.00 0.00 0.00 86 1013.1
20260510131334 22 269 0.0 1.6 0.00 0.00 0.00 86 1012.4
20260510130307 21 321 0.0 0.0 0.00 0.00 0.00 87 1012.1
20260510130026 21 318 0.0 3.2 0.00 0.00 0.00 87 1012.8
20260510125310 21 314 0.0 1.6 0.00 0.00 0.00 88 1012.0
20260510124512 20 323 0.0 3.2 0.00 0.00 0.00 88 1012.5
20260510123013 20 304 0.0 3.2 0.00 0.00 0.00 89 1012.4
20260510122008 20 1 0.0 0.0 0.00 0.00 0.00 89 1011.7
20260510121510 20 343 0.0 3.2 0.00 0.00 0.00 89 1012.3
20260510120947 20 329 0.0 0.0 0.00 0.00 0.00 89 1011.6
20260510120025 19 65 0.0 1.6 0.00 0.00 0.00 88 1012.3
20260510120008 20 60 0.0 0.0 0.00 0.00 0.00 88 1011.6
20260510115019 20 90 0.0 0.0 0.00 0.00 0.00 87 1011.7
20260510114528 20 101 0.0 3.2 0.00 0.00 0.00 87 1012.2
20260510113945 20 110 0.0 3.2 0.00 0.00 0.00 87 1011.6
20260510113034 20 161 0.0 4.8 0.00 0.00 0.00 86 1012.1
20260510113003 20 160 0.0 3.2 0.00 0.00 0.00 86 1011.5
20260510112019 20 53 0.0 1.6 0.00 0.00 0.00 86 1011.6
20260510111521 20 189 0.0 4.8 0.00 0.00 0.00 85 1012.2
20260510111015 20 259 0.0 0.0 0.00 0.00 0.00 85 1011.5
20260510110031 20 84 1.6 4.8 0.00 0.00 0.00 84 1012.2
20260510105953 20 79 0.0 3.2 0.00 0.00 0.00 85 1011.5
20260510104937 20 187 0.0 3.2 0.00 0.00 0.00 86 1011.3
20260510104519 20 191 0.0 4.8 0.00 0.00 0.00 86 1012.0
20260510103944 20 188 0.0 3.2 0.00 0.00 0.00 88 1011.4
20260510103019 19 152 0.0 3.2 0.00 0.00 0.00 89 1012.0
20260510102943 20 150 0.0 1.6 0.00 0.00 0.00 89 1011.4
20260510101949 18 93 0.0 1.6 0.00 0.00 0.00 91 1011.6
20260510101514 18 107 0.0 0.0 0.00 0.00 0.00 90 1012.3
20260510100026 18 107 0.0 0.0 0.00 0.00 0.00 90 1012.3
20260510095844 18 104 0.0 0.0 0.00 0.00 0.00 90 1011.7
20260510094855 18 104 0.0 0.0 0.00 0.00 0.00 90 1011.8
20260510094528 18 107 0.0 0.0 0.00 0.00 0.00 89 1012.4
20260510093840 18 104 0.0 0.0 0.00 0.00 0.00 89 1011.8
20260510093042 18 107 0.0 0.0 0.00 0.00 0.00 89 1012.4
20260510092830 19 104 0.0 0.0 0.00 0.00 0.00 90 1011.7
20260510091824 19 104 0.0 0.0 0.00 0.00 0.00 89 1011.6
20260510091528 18 107 0.0 0.0 0.00 0.00 0.00 88 1012.2
20260510090845 19 104 0.0 0.0 0.00 0.00 0.00 89 1011.5
20260510090038 19 107 0.0 0.0 0.00 0.00 0.00 88 1012.1
20260510085852 19 104 0.0 0.0 0.00 0.00 0.00 88 1011.6
20260510084908 20 104 0.0 0.0 0.00 0.00 0.00 87 1011.6
20260510084529 20 107 0.0 0.0 0.00 0.00 0.00 86 1012.1
20260510083856 20 104 0.0 0.0 0.00 0.00 0.00 86 1011.5
20260510083020 20 107 0.0 3.2 0.00 0.00 0.00 84 1012.0
20260510082857 21 104 0.0 0.0 0.00 0.00 0.00 85 1011.4
20260510081518 20 91 0.0 3.2 0.00 0.00 0.00 83 1011.9
20260510080740 21 89 0.0 0.0 0.00 0.00 0.00 84 1011.3
20260510080016 21 93 0.0 3.2 0.00 0.00 0.00 82 1011.9
20260510075724 21 89 0.0 1.6 0.00 0.00 0.00 82 1011.2
20260510074744 22 103 0.0 1.6 0.00 0.00 0.00 81 1011.3
20260510074512 22 105 0.0 1.6 0.00 0.00 0.00 80 1012.0
20260510073010 22 123 0.0 3.2 0.00 0.00 0.00 79 1012.0
20260510072608 22 139 0.0 0.0 0.00 0.00 0.00 79 1011.3
20260510071539 22 108 0.0 1.6 0.00 0.00 0.00 79 1011.3
20260510071507 22 111 0.0 3.2 0.00 0.00 0.00 78 1012.0
20260510070542 22 164 0.0 0.0 0.00 0.00 0.00 78 1011.3
20260510070007 22 114 0.0 3.2 0.00 0.00 0.00 77 1011.9
20260510064530 23 175 0.0 6.4 0.00 0.00 0.00 76 1012.0
20260510064343 23 175 0.0 4.8 0.00 0.00 0.00 77 1011.4
20260510063319 23 107 0.0 6.4 0.00 0.00 0.00 77 1011.3
20260510063022 23 177 0.0 8.0 0.00 0.00 0.00 76 1011.9
20260510062301 23 124 0.0 1.6 0.00 0.00 0.00 77 1011.3
20260510061522 23 180 0.0 4.8 0.00 0.00 0.00 76 1012.1
20260510060146 23 126 0.0 0.0 0.00 0.00 0.00 77 1011.6
20260510060020 23 169 0.0 4.8 0.00 0.00 0.00 77 1012.2
20260510055146 23 119 0.0 0.0 0.00 0.00 0.00 78 1011.5
20260510054520 23 150 0.0 4.8 0.00 0.00 0.00 78 1012.0
20260510054209 23 72 0.0 1.6 0.00 0.00 0.00 79 1011.3
20260510053220 22 136 0.0 0.0 0.00 0.00 0.00 81 1011.3
20260510053012 22 125 0.0 3.2 0.00 0.00 0.00 80 1011.9
20260510052212 22 127 0.0 0.0 0.00 0.00 0.00 80 1011.2
20260510051510 22 129 0.0 0.0 0.00 0.00 0.00 80 1011.9
20260510051219 22 127 0.0 0.0 0.00 0.00 0.00 80 1011.2
20260510050235 22 105 0.0 0.0 0.00 0.00 0.00 81 1011.1
20260510050006 22 109 0.0 3.2 0.00 0.00 0.00 82 1011.8
20260510044533 21 109 0.0 3.2 0.00 0.00 0.00 84 1011.7
20260510044117 21 105 0.0 1.6 0.00 0.00 0.00 85 1011.0
20260510043113 21 130 0.0 0.0 0.00 0.00 0.00 85 1011.0
20260510043026 21 132 0.0 0.0 0.00 0.00 0.00 85 1011.8
20260510042051 21 130 0.0 0.0 0.00 0.00 0.00 85 1010.9
20260510041530 21 132 0.0 0.0 0.00 0.00 0.00 84 1011.6
20260510040022 21 132 0.0 0.0 0.00 0.00 0.00 83 1011.4
20260510035924 21 130 0.0 0.0 0.00 0.00 0.00 84 1010.7
20260510034911 21 130 0.0 0.0 0.00 0.00 0.00 83 1010.7
20260510034516 21 132 0.0 0.0 0.00 0.00 0.00 82 1011.4
20260510033903 22 130 0.0 0.0 0.00 0.00 0.00 82 1010.6
20260510033012 22 132 0.0 0.0 0.00 0.00 0.00 81 1011.2
20260510032920 22 130 0.0 0.0 0.00 0.00 0.00 81 1010.5
20260510031930 22 130 0.0 0.0 0.00 0.00 0.00 81 1010.4
20260510031514 22 132 0.0 0.0 0.00 0.00 0.00 80 1011.1
20260510030937 22 130 0.0 0.0 0.00 0.00 0.00 80 1010.4
20260510030008 22 132 0.0 0.0 0.00 0.00 0.00 78 1011.0
20260510025914 23 130 0.0 0.0 0.00 0.00 0.00 78 1010.3
20260510024850 23 130 0.0 0.0 0.00 0.00 0.00 77 1010.2
20260510024526 23 132 0.0 0.0 0.00 0.00 0.00 75 1010.9
20260510023906 23 130 0.0 0.0 0.00 0.00 0.00 75 1010.2
20260510023022 24 132 0.0 3.2 0.00 0.00 0.00 73 1010.8
20260510022915 24 130 0.0 0.0 0.00 0.00 0.00 73 1010.0
20260510021841 25 131 0.0 1.6 0.00 0.00 0.00 72 1010.0
20260510021528 25 134 0.0 3.2 0.00 0.00 0.00 71 1010.7
20260510020834 25 148 0.0 0.0 0.00 0.00 0.00 71 1009.8
20260510020026 25 128 0.0 3.2 0.00 0.00 0.00 69 1010.4
20260510015851 25 125 0.0 1.6 0.00 0.00 0.00 70 1009.7
20260510014908 25 110 0.0 1.6 0.00 0.00 0.00 69 1009.6
20260510014518 25 118 0.0 6.4 0.00 0.00 0.00 68 1010.3
20260510013920 26 119 0.0 1.6 0.00 0.00 0.00 69 1009.4
20260510013017 26 132 0.0 4.8 0.00 0.00 0.00 68 1009.9
20260510011815 26 139 0.0 3.2 0.00 0.00 0.00 66 1009.1
20260510011515 26 156 1.6 6.4 0.00 0.00 0.00 65 1009.8
20260510010806 26 148 0.0 0.0 0.00 0.00 0.00 65 1008.9
20260510010012 26 161 3.2 6.4 0.00 0.00 0.00 63 1009.7
20260510005748 26 146 0.0 1.6 0.00 0.00 0.00 63 1008.7
20260510004753 26 123 0.0 1.6 0.00 0.00 0.00 62 1008.6
20260510004528 26 142 0.0 3.2 0.00 0.00 0.00 61 1009.3
20260510003743 27 129 0.0 0.0 0.00 0.00 0.00 66 1008.6
20260510003026 27 186 0.0 3.2 0.00 0.00 0.00 66 1009.3
20260510002734 27 146 0.0 1.6 0.00 0.00 0.00 68 1008.4
20260510001706 27 113 0.0 1.6 0.00 0.00 0.00 73 1008.2
20260510001526 26 110 0.0 3.2 0.00 0.00 0.00 73 1009.2
20260510000707 27 91 0.0 0.0 0.00 0.00 0.00 71 1008.2
20260510000022 27 94 0.0 0.0 0.00 0.00 0.00 69 1009.0
20260509235713 27 91 0.0 0.0 0.00 0.00 0.00 70 1008.1
20260509234640 28 91 0.0 1.6 0.00 0.00 0.00 64 1007.9
20260509234521 28 94 0.0 3.2 0.00 0.00 0.00 63 1008.7
20260509233624 28 121 0.0 0.0 0.00 0.00 0.00 63 1008.0
20260509233024 28 114 0.0 6.4 0.00 0.00 0.00 63 1009.0
20260509232615 28 140 0.0 6.4 0.00 0.00 0.00 62 1008.1
20260509231606 29 124 0.0 4.8 0.00 0.00 0.00 61 1008.2
20260509231516 28 117 0.0 3.2 0.00 0.00 0.00 61 1009.1
20260509230538 29 229 0.0 0.0 0.00 0.00 0.00 62 1008.2
20260509230017 30 306 0.0 4.8 0.00 0.00 0.00 61 1009.0
20260509224513 30 65 0.0 3.2 0.00 0.00 0.00 56 1008.9
20260509224330 30 144 0.0 1.6 0.00 0.00 0.00 57 1008.1
20260509223314 30 60 0.0 0.0 0.00 0.00 0.00 58 1008.1
20260509223014 30 134 0.0 3.2 0.00 0.00 0.00 54 1009.0
20260509222251 30 113 0.0 1.6 0.00 0.00 0.00 56 1008.1
20260509221511 30 130 0.0 4.8 0.00 0.00 0.00 54 1008.9
20260509221309 31 217 0.0 0.0 0.00 0.00 0.00 54 1008.0
20260509220324 32 273 0.0 0.0 0.00 0.00 0.00 49 1008.0
20260509220031 32 275 1.6 6.4 0.00 0.00 0.00 48 1008.9
20260509215255 31 304 0.0 4.8 0.00 0.00 0.00 53 1008.1
20260509214523 32 214 1.6 6.4 0.00 0.00 0.00 52 1009.0
20260509214230 32 97 0.0 1.6 0.00 0.00 0.00 50 1008.1
20260509213213 32 59 0.0 4.8 0.00 0.00 0.00 51 1008.1
20260509213028 32 78 1.6 6.4 0.00 0.00 0.00 48 1009.0
20260509212144 32 345 0.0 3.2 0.00 0.00 0.00 53 1008.3
20260509211519 32 232 1.6 4.8 0.00 0.00 0.00 50 1009.0
20260509211147 32 295 0.0 3.2 0.00 0.00 0.00 51 1008.2
20260509210142 31 323 0.0 1.6 0.00 0.00 0.00 54 1008.4
20260509210016 31 113 0.0 3.2 0.00 0.00 0.00 54 1009.3
20260509205146 31 302 0.0 1.6 0.00 0.00 0.00 55 1008.6
20260509204530 31 298 0.0 6.4 0.00 0.00 0.00 53 1009.6
20260509204145 32 139 0.0 4.8 0.00 0.00 0.00 53 1008.9
20260509203030 32 95 1.6 6.4 0.00 0.00 0.00 50 1009.6
20260509201930 31 338 0.0 8.0 0.00 0.00 0.00 57 1009.0
20260509201512 31 54 1.6 4.8 0.00 0.00 0.00 54 1009.8
20260509200026 30 115 3.2 6.4 0.00 0.00 0.00 60 1010.1
20260509195806 30 77 0.0 1.6 0.00 0.00 0.00 59 1009.5
20260509194826 30 191 0.0 3.2 0.00 0.00 0.00 60 1009.6
20260509194527 30 148 0.0 4.8 0.00 0.00 0.00 57 1010.4
20260509193756 32 315 0.0 3.2 0.00 0.00 0.00 55 1009.8
20260509193029 31 305 1.6 3.2 0.00 0.00 0.00 60 1010.7
20260509191539 32 298 0.0 4.8 0.00 0.00 0.00 57 1010.1
20260509191522 32 306 1.6 4.8 0.00 0.00 0.00 56 1011.0
20260509190535 31 113 0.0 6.4 0.00 0.00 0.00 58 1010.3
20260509190022 32 219 0.0 9.7 0.00 0.00 0.00 59 1011.0
20260509185502 32 116 0.0 6.4 0.00 0.00 0.00 60 1010.3
20260509184527 32 130 0.0 4.8 0.00 0.00 0.00 56 1011.1
20260509184452 32 143 0.0 3.2 0.00 0.00 0.00 56 1010.3
20260509183516 32 314 0.0 3.2 0.00 0.00 0.00 57 1010.4
20260509183016 31 267 0.0 4.8 0.00 0.00 0.00 58 1011.2
20260509181515 30 298 0.0 4.8 0.00 0.00 0.00 60 1011.6
20260509181354 30 200 0.0 8.0 0.00 0.00 0.00 60 1010.9
20260509180344 31 197 0.0 8.0 0.00 0.00 0.00 57 1010.9
20260509180026 31 95 1.6 11.3 0.00 0.00 0.00 60 1011.6
20260509175358 31 274 0.0 4.8 0.00 0.00 0.00 60 1011.0
20260509174526 31 275 1.6 6.4 0.00 0.00 0.00 59 1011.8
20260509174344 31 324 0.0 3.2 0.00 0.00 0.00 61 1011.2
20260509173343 30 193 0.0 4.8 0.00 0.00 0.00 65 1011.2
20260509173025 30 199 1.6 4.8 0.00 0.00 0.00 63 1011.9
20260509172332 30 200 0.0 4.8 0.00 0.00 0.00 66 1011.2
20260509171524 29 280 3.2 6.4 0.00 0.00 0.00 64 1011.9
20260509170301 30 105 0.0 1.6 0.00 0.00 0.00 66 1011.3
20260509170022 30 290 0.0 3.2 0.00 0.00 0.00 67 1012.0
20260509165255 30 294 0.0 3.2 0.00 0.00 0.00 71 1011.3